W0DP-11 Weather Reports


time (UTC)temp
C
wind
direction
speed
KPH
gust
KPH
rain 1hr
cm
rain 24hr
cm
rain mn
cm
humidity
%
barometer
mb
20260503225016 16 315 8.0 19.3 0.00 0.00 0.00 38 1002.5
20260503224016 15 293 9.7 19.3 0.00 0.00 0.00 41 1002.5
20260503223036 15 315 6.4 11.3 0.00 0.00 0.00 40 1002.6
20260503222036 15 293 9.7 19.3 0.00 0.00 0.00 38 1002.7
20260503221036 15 293 8.0 16.1 0.00 0.00 0.00 39 1002.8
20260503220016 15 315 9.7 19.3 0.00 0.00 0.00 39 1002.8
20260503215056 15 315 12.9 27.4 0.00 0.00 0.00 39 1002.9
20260503214016 15 293 9.7 22.5 0.00 0.00 0.00 39 1003.0
20260503213016 15 315 11.3 22.5 0.00 0.00 0.00 38 1003.0
20260503212015 14 293 11.3 24.1 0.00 0.00 0.00 39 1003.2
20260503211016 13 315 8.0 17.7 0.00 0.00 0.00 38 1003.4
20260503210036 13 315 6.4 17.7 0.00 0.00 0.00 43 1003.4
20260503205036 13 315 8.0 16.1 0.00 0.00 0.00 42 1003.5
20260503204036 13 315 9.7 17.7 0.00 0.00 0.00 39 1003.8
20260503203016 13 315 12.9 25.7 0.00 0.00 0.00 37 1003.9
20260503202036 13 293 17.7 29.0 0.00 0.00 0.00 34 1004.0
20260503201036 13 293 17.7 32.2 0.00 0.00 0.00 34 1004.3
20260503200036 13 293 14.5 27.4 0.00 0.00 0.00 34 1004.4
20260503195036 13 293 14.5 25.7 0.00 0.00 0.00 37 1004.5
20260503194036 13 293 14.5 25.7 0.00 0.00 0.00 32 1004.6
20260503193036 13 293 11.3 25.7 0.00 0.00 0.00 39 1004.5
20260503192035 13 293 14.5 22.5 0.00 0.00 0.00 39 1004.5
20260503191036 13 293 16.1 29.0 0.00 0.00 0.00 36 1004.7
20260503190016 12 293 14.5 24.1 0.00 0.00 0.00 42 1004.7
20260503185036 12 315 8.0 16.1 0.00 0.00 0.00 38 1004.7
20260503184017 12 293 9.7 17.7 0.00 0.00 0.00 41 1005.0
20260503183017 12 315 12.9 25.7 0.00 0.00 0.00 40 1004.9
20260503182016 12 315 12.9 19.3 0.00 0.00 0.00 40 1005.0
20260503181017 12 315 8.0 16.1 0.00 0.00 0.00 42 1005.1
20260503180017 12 315 12.9 27.4 0.00 0.00 0.00 39 1005.1
20260503175018 12 293 9.7 20.9 0.00 0.00 0.00 41 1005.3
20260503174017 12 315 9.7 22.5 0.00 0.00 0.00 44 1005.4
20260503173018 12 315 11.3 25.7 0.00 0.00 0.00 43 1005.3
20260503172017 11 315 12.9 27.4 0.00 0.00 0.00 42 1005.4
20260503171017 11 315 6.4 16.1 0.00 0.00 0.00 44 1005.8
20260503131016 7 293 4.8 11.3 0.00 0.00 0.00 87 1005.9
20260503081018 5 0.0 0.0 0.00 0.00 0.00 89 1006.6
20260503072036 7 0.0 0.0 0.00 0.00 0.00 84 1007.0
20260503071036 7 0.0 0.0 0.00 0.00 0.00 83 1006.9
20260503055036 8 0.0 1.6 0.00 0.00 0.00 81 1007.6
20260503054016 8 0.0 1.6 0.00 0.00 0.00 81 1007.6
20260503053016 8 270 1.6 3.2 0.00 0.00 0.00 80 1007.7
20260503052036 9 293 1.6 6.4 0.00 0.00 0.00 80 1007.7
20260503051015 8 315 1.6 4.8 0.00 0.00 0.00 77 1007.7
20260503050035 8 293 3.2 4.8 0.00 0.00 0.00 79 1007.6
20260503045036 10 293 3.2 8.0 0.00 0.00 0.00 77 1007.7
20260503044016 10 270 3.2 8.0 0.00 0.00 0.00 76 1007.6
20260503043036 10 248 4.8 9.7 0.00 0.00 0.00 75 1007.6
20260503042016 10 248 6.4 16.1 0.00 0.00 0.00 75 1007.7
20260503041016 10 270 4.8 11.3 0.00 0.00 0.00 76 1007.7
20260503040036 8 270 3.2 8.0 0.00 0.00 0.00 72 1007.6
20260503035036 8 0.0 3.2 0.00 0.00 0.00 60 1007.8
20260503034016 8 0.0 1.6 0.00 0.00 0.00 59 1007.5
20260503033016 8 0.0 1.6 0.00 0.00 0.00 57 1007.7
20260503032016 8 0.0 1.6 0.00 0.00 0.00 56 1007.8
20260503031016 8 270 1.6 3.2 0.00 0.00 0.00 56 1007.6
20260503030016 8 270 1.6 6.4 0.00 0.00 0.00 57 1007.7
20260503025016 8 135 1.6 6.4 0.00 0.00 0.00 55 1007.6
20260503024036 8 0.0 4.8 0.00 0.00 0.00 55 1007.6
20260503023016 8 135 4.8 8.0 0.00 0.00 0.00 54 1007.5
20260503022036 8 158 1.6 4.8 0.00 0.00 0.00 54 1007.7
20260503021016 8 45 3.2 6.4 0.00 0.00 0.00 54 1007.6
20260503020016 9 113 1.6 8.0 0.00 0.00 0.00 52 1007.8
20260503015016 9 135 3.2 9.7 0.00 0.00 0.00 51 1007.5
20260503014036 10 135 6.4 12.9 0.00 0.00 0.00 50 1007.6
20260503013036 10 135 4.8 12.9 0.00 0.00 0.00 49 1007.6
20260503012016 11 135 4.8 17.7 0.00 0.00 0.00 50 1007.7
20260503011016 12 0.0 1.6 0.00 0.00 0.00 49 1007.7
20260503010036 12 0.0 3.2 0.00 0.00 0.00 49 1007.7
20260503005036 13 0.0 0.0 0.00 0.00 0.00 45 1007.9
20260503004016 13 0.0 3.2 0.00 0.00 0.00 45 1007.8
20260503003016 13 0.0 0.0 0.00 0.00 0.00 48 1008.0
20260503002016 13 0.0 0.0 0.00 0.00 0.00 47 1008.1
20260503001015 13 0.0 1.6 0.00 0.00 0.00 45 1008.1
20260503000015 13 0.0 1.6 0.00 0.00 0.00 45 1008.2
20260502235015 13 0.0 3.2 0.00 0.00 0.00 44 1008.4
20260502234016 14 248 3.2 9.7 0.00 0.00 0.00 43 1008.2
20260502233015 13 225 1.6 4.8 0.00 0.00 0.00 42 1008.2
20260502232015 13 270 1.6 4.8 0.00 0.00 0.00 47 1008.5
20260502231056 14 270 4.8 12.9 0.00 0.00 0.00 43 1008.5
20260502230015 15 270 3.2 8.0 0.00 0.00 0.00 40 1008.6